User: anonymous   Login
Location: Allaines
(49.9632°N, 2.9458°E)
Time: 00:46:08
(UTC+00:00)
Language:

STARLINK-1210 - Orbit

View from above orbital plane
View from above orbital plane
View from above satellite
View from above satellite

Ground track
Ground track

The orbit data is extracted from the following two-line orbital elements,

1 45207U 20012AF  20188.83334491  .00038932  00000-0  26781-2 0  9998
2 45207  52.9996 327.5453 0001134  89.5320 309.9490 15.05557003 21913
Epoch (UTC): 06 July 2020 20:00:01
Eccentricity: 0.0001134
inclination: 52.9996°
perigee height: 549 km
apogee height: 550 km
right ascension of ascending node: 327.5453°
argument of perigee: 89.5320°
revolutions per day: 15.05557003
mean anomaly at epoch: 309.9490°
orbit number at epoch: 2191

The dashed part of the orbit path shows where the satellite is in the earth's shadow,  

DLR